Valley City, ND

2:46 PM CST on February 13, 2016 (GMT -0600)
Valley City

Weather History for KBAC - January, 2013

Change the Weather History Date:

Monday, January 7, 2013

  Actual Average (KJMS) Record (KJMS)
Temperature  
Mean Temperature 22 °F 10 °F  
Max Temperature 32 °F 20 °F 49 °F (1963)
Min Temperature 10 °F 1 °F -29 °F (1929)
Degree Days  
Heating Degree Days 43 55  
Month to date heating degree days 383  
Since 1 July heating degree days 4043  
Cooling Degree Days 0 0  
Month to date cooling degree days 0  
Year to date cooling degree days 0  
Moisture  
Dew Point 20 °F    
Average Humidity 80    
Maximum Humidity 100    
Minimum Humidity 69    
Precipitation  
Precipitation 0.00 in 0.02 in 0.31 in (1977)
Month to date precipitation 0.11  
Year to date precipitation 0.11  
Sea Level Pressure  
Sea Level Pressure 29.79 in    
Wind  
Wind Speed 15 mph (WSW)    
Max Wind Speed 22 mph    
Max Gust Speed 29 mph    
Visibility 10 miles    
Events Snow    
T = Trace of Precipitation, MM = Missing Value Source: NWS Daily Summary

Daily Weather History Graph

Daily Weather History Graph

Search for Another Location

Airport or City:

Trip Planner

Search our weather history database for the weather conditions in past years. The results will help you decide how hot, cold, wet, or windy it might be!

Date:

Astronomy

Jan. 07, 2013 Rise Set
Actual Time 8:16 AM CST 5:00 PM CST
Civil Twilight 7:41 AM CST 5:35 PM CST
Nautical Twilight 7:03 AM CST 6:13 PM CST
Astronomical Twilight 6:26 AM CST 6:50 PM CST
Moon 3:37 AM CST (1/7) 1:15 PM CST (1/7)
Length of Visible Light 9h 53m
Length of Day
8h 43m
Waning Crescent, 22% of the Moon is Illuminated
Jan 7
Waning Crescent
Jan 11
New
Jan 18
First Quarter
Jan 26
Full
Feb 3
Last Quarter

Hourly Weather History & Observations

Time (CST) Temp. Windchill Dew Point Humidity Pressure Visibility Wind Dir Wind Speed Gust Speed Precip Events Conditions
12:15 AM 19.4 °F 7.2 °F 17.6 °F 93% 29.69 in 10.0 mi SW 11.5 mph - N/A   Mostly Cloudy
12:35 AM 23.0 °F 10.1 °F 17.6 °F 80% 29.70 in 10.0 mi SW 15.0 mph - N/A   Mostly Cloudy
12:55 AM 23.0 °F 11.7 °F 17.6 °F 80% 29.70 in 10.0 mi WSW 11.5 mph - N/A   Mostly Cloudy
1:15 AM 23.0 °F 11.7 °F 19.4 °F 86% 29.70 in 10.0 mi WSW 11.5 mph - N/A   Mostly Cloudy
1:35 AM 24.8 °F 14.0 °F 19.4 °F 80% 29.70 in 10.0 mi West 11.5 mph - N/A   Scattered Clouds
1:55 AM 26.6 °F 15.7 °F 21.2 °F 80% 29.69 in 10.0 mi WSW 12.7 mph - N/A   Partly Cloudy
2:15 AM 28.4 °F 17.5 °F 21.2 °F 74% 29.69 in 10.0 mi West 13.8 mph - N/A   Mostly Cloudy
2:35 AM 28.4 °F 16.2 °F 23.0 °F 80% 29.71 in 10.0 mi West 17.3 mph - N/A   Overcast
2:55 AM 30.2 °F 18.1 °F 23.0 °F 75% 29.71 in 10.0 mi West 18.4 mph - N/A   Overcast
3:15 AM 32.0 °F 20.5 °F 23.0 °F 69% 29.71 in 10.0 mi West 18.4 mph 23.0 mph N/A   Overcast
3:35 AM 32.0 °F 20.1 °F 24.8 °F 75% 29.71 in 10.0 mi West 19.6 mph - N/A   Overcast
3:55 AM 32.0 °F 19.5 °F 24.8 °F 75% 29.70 in 10.0 mi West 21.9 mph 26.5 mph N/A   Scattered Clouds
4:15 AM 32.0 °F 19.5 °F 24.8 °F 75% 29.70 in 10.0 mi West 21.9 mph - N/A Snow Light Snow
4:35 AM 32.0 °F 20.5 °F 24.8 °F 75% 29.71 in 10.0 mi West 18.4 mph 24.2 mph N/A   Clear
4:55 AM 30.2 °F 17.8 °F 23.0 °F 75% 29.71 in 10.0 mi West 19.6 mph - N/A   Clear
5:15 AM 30.2 °F 18.1 °F 23.0 °F 75% 29.71 in 10.0 mi West 18.4 mph 26.5 mph N/A   Clear
5:35 AM 30.2 °F 18.1 °F 23.0 °F 75% 29.72 in 10.0 mi West 18.4 mph - N/A   Clear
5:55 AM 28.4 °F 16.2 °F 21.2 °F 74% 29.73 in 10.0 mi West 17.3 mph - N/A   Clear
6:35 AM 28.4 °F 15.8 °F 21.2 °F 74% 29.74 in 10.0 mi West 18.4 mph - N/A   Clear
6:55 AM 28.4 °F 15.8 °F 23.0 °F 80% 29.75 in 10.0 mi West 18.4 mph - N/A   Clear
7:15 AM 28.4 °F 15.8 °F 23.0 °F 80% 29.75 in 10.0 mi WSW 18.4 mph - N/A   Clear
7:35 AM 28.4 °F 16.2 °F 21.2 °F 74% 29.75 in 10.0 mi West 17.3 mph - N/A   Clear
7:55 AM 26.6 °F 14.3 °F 21.2 °F 80% 29.76 in 10.0 mi WSW 16.1 mph - N/A   Clear
8:15 AM 24.8 °F 12.4 °F 19.4 °F 80% 29.76 in 10.0 mi WSW 15.0 mph - N/A   Clear
8:35 AM 24.8 °F 12.4 °F 19.4 °F 80% 29.77 in 10.0 mi WSW 15.0 mph - N/A   Clear
8:55 AM 26.6 °F 14.7 °F 19.4 °F 74% 29.77 in 10.0 mi WSW 15.0 mph - N/A   Clear
9:15 AM 26.6 °F 12.7 °F 19.4 °F 74% 29.77 in 10.0 mi WSW 20.7 mph - N/A   Clear
9:35 AM 26.6 °F 13.1 °F 19.4 °F 74% 29.78 in 10.0 mi WSW 19.6 mph 24.2 mph N/A   Clear
9:55 AM 28.4 °F 15.8 °F 19.4 °F 69% 29.79 in 10.0 mi WSW 18.4 mph 25.3 mph N/A   Clear
10:15 AM 26.6 °F 12.7 °F 19.4 °F 74% 29.80 in 10.0 mi WSW 20.7 mph 27.6 mph N/A Snow Light Snow
10:35 AM 26.6 °F 12.7 °F 19.4 °F 74% 29.81 in 10.0 mi WSW 20.7 mph 28.8 mph N/A Snow Light Snow
10:55 AM 28.4 °F 15.1 °F 21.2 °F 74% 29.81 in 10.0 mi WSW 20.7 mph - N/A Snow Light Snow
11:15 AM 28.4 °F 15.4 °F 21.2 °F 74% 29.81 in 10.0 mi WSW 19.6 mph 27.6 mph N/A   Clear
11:35 AM 28.4 °F 16.2 °F 21.2 °F 74% 29.81 in 10.0 mi WSW 17.3 mph - N/A Snow Light Snow
11:55 AM 30.2 °F 18.1 °F 21.2 °F 69% 29.80 in 10.0 mi WSW 18.4 mph - N/A Snow Light Snow
12:15 PM 30.2 °F 18.1 °F 21.2 °F 69% 29.80 in 10.0 mi West 18.4 mph 24.2 mph N/A   Clear
12:35 PM 30.2 °F 18.5 °F 21.2 °F 69% 29.79 in 10.0 mi West 17.3 mph - N/A   Clear
1:15 PM 30.2 °F 18.9 °F 23.0 °F 75% 29.78 in 10.0 mi WSW 16.1 mph - N/A   Clear
1:35 PM 30.2 °F 17.8 °F 23.0 °F 75% 29.79 in 10.0 mi West 19.6 mph - N/A   Clear
1:55 PM 32.0 °F 20.1 °F 23.0 °F 69% 29.79 in 10.0 mi West 19.6 mph 26.5 mph N/A Snow Light Snow
2:15 PM 32.0 °F 19.5 °F 23.0 °F 69% 29.80 in 10.0 mi West 21.9 mph 28.8 mph N/A Snow Light Snow
2:35 PM 32.0 °F 20.1 °F 23.0 °F 69% 29.80 in 10.0 mi West 19.6 mph - N/A Snow Light Snow
2:55 PM 32.0 °F 20.8 °F 23.0 °F 69% 29.81 in 10.0 mi West 17.3 mph - N/A   Clear
3:15 PM 30.2 °F 20.2 °F 23.0 °F 75% 29.82 in 10.0 mi West 12.7 mph - N/A   Clear
3:35 PM 30.2 °F 20.2 °F 23.0 °F 75% 29.82 in 10.0 mi West 12.7 mph - N/A   Clear
3:55 PM 30.2 °F 20.8 °F 23.0 °F 75% 29.83 in 10.0 mi West 11.5 mph - N/A   Clear
4:15 PM 28.4 °F 19.7 °F 21.2 °F 74% 29.84 in 10.0 mi West 9.2 mph - N/A   Clear
4:35 PM 28.4 °F 20.4 °F 21.2 °F 74% 29.84 in 10.0 mi WNW 8.1 mph - N/A   Clear
5:15 PM 21.2 °F 8.9 °F 17.6 °F 86% 29.84 in 10.0 mi West 12.7 mph - N/A   Clear
5:35 PM 23.0 °F 11.1 °F 19.4 °F 86% 29.84 in 10.0 mi West 12.7 mph - N/A   Clear
5:55 PM 21.2 °F 8.3 °F 17.6 °F 86% 29.84 in 10.0 mi West 13.8 mph - N/A   Clear
6:15 PM 21.2 °F 7.8 °F 17.6 °F 86% 29.84 in 10.0 mi West 15.0 mph - N/A   Clear
6:35 PM 21.2 °F 8.3 °F 17.6 °F 86% 29.84 in 10.0 mi West 13.8 mph - N/A   Clear
6:55 PM 21.2 °F 7.3 °F 17.6 °F 86% 29.85 in 10.0 mi West 16.1 mph - N/A   Clear
7:15 PM 23.0 °F 10.1 °F 17.6 °F 80% 29.85 in 10.0 mi West 15.0 mph - N/A   Clear
7:35 PM 23.0 °F 10.6 °F 17.6 °F 80% 29.86 in 10.0 mi West 13.8 mph - N/A   Clear
7:55 PM 17.6 °F 3.2 °F 15.8 °F 93% 29.86 in 10.0 mi West 15.0 mph - N/A   Clear
8:15 PM 19.4 °F 6.0 °F 15.8 °F 86% 29.86 in 10.0 mi West 13.8 mph - N/A   Clear
8:35 PM 17.6 °F - 15.8 °F 93% 29.87 in 10.0 mi Calm Calm - N/A   Clear
8:55 PM 17.6 °F 12.3 °F 15.8 °F 93% 29.86 in 10.0 mi SE 3.5 mph - N/A   Clear
9:35 PM 17.6 °F 10.7 °F 15.8 °F 93% 29.86 in 10.0 mi SSE 4.6 mph - N/A   Clear
9:55 PM 15.8 °F - 14.0 °F 93% 29.86 in 10.0 mi Calm Calm - N/A   Clear
10:15 PM 15.8 °F 10.2 °F 14.0 °F 93% 29.85 in 10.0 mi SSE 3.5 mph - N/A   Clear
10:35 PM 14.0 °F - 14.0 °F 100% 29.85 in 8.0 mi Calm Calm - N/A   Clear
10:55 PM 14.0 °F 3.9 °F 14.0 °F 100% 29.85 in 10.0 mi South 6.9 mph - N/A   Clear
11:15 PM 12.2 °F 6.1 °F 12.2 °F 100% 29.85 in 10.0 mi South 3.5 mph - N/A   Clear
11:35 PM 12.2 °F 4.3 °F 12.2 °F 100% 29.85 in 10.0 mi SSW 4.6 mph - N/A   Clear
11:55 PM 10.4 °F -2.4 °F 10.4 °F 100% 29.84 in 10.0 mi South 9.2 mph - N/A   Clear